Regional Weather Roundup
Issued by NWS

Home | Current Version | Previous Version | Graphics & Text | Print | Product List | Glossary On
Versions: 1 2 3 4 5 6 7 8 9 10 11 12 13 14 15 16 17 18 19 20 21 22 23 24 25 26 27 28 29 30 31 32 33 34 35 36 37 38 39 40 41 42 43 44 45 46 47 48 49 50
000
ASUS43 KFSD 170910
RWRSD

WEATHER ROUNDUP FOR SOUTH DAKOTA
NATIONAL WEATHER SERVICE SIOUX FALLS SD
300 AM CST FRI NOV 17 2017

NOTE: "FAIR" INDICATES FEW OR NO CLOUDS BELOW 12,000 FEET WITH NO
SIGNIFICANT WEATHER AND/OR OBSTRUCTIONS TO VISIBILITY.


SDZ001>005-009-010-012>017-171000-
NORTHWEST AND NORTH CENTRAL SOUTH DAKOTA

CITY           SKY/WX    TMP DP  RH WIND       PRES   REMARKS
BUFFALO          N/A     38  32  79 SW3       29.55F
FAITH            N/A     37  28  70 N8        29.63R
MOBRIDGE       CLOUDY    34  28  79 N6        29.56R WCI  29
$$

SDZ012>016-024>037-041>051-057-063-072>074-171000-
SOUTHWEST AND SOUTH CENTRAL SOUTH DAKOTA

CITY           SKY/WX    TMP DP  RH WIND       PRES   REMARKS
RAPID CTY ARPT CLOUDY    43  28  55 N13       29.64R
PIERRE         CLOUDY    41  30  65 N16G26    29.56R
CUSTER         CLOUDY    40  27  59 N5        29.63S
ELLSWORTH AFB  LGT RAIN  45  28  53 N14       29.64
PHILIP         PTCLDY    43  30  60 N10       29.64R
PINE RIDGE     CLOUDY    43  27  53 NE8       29.65R
SPEARFISH      CLOUDY    41  27  56 NW7       29.66F
WINNER         FAIR      50  33  52 W9        29.57R
$$

SDZ004>011-016>023-039-040-171000-
NORTHEAST SOUTH DAKOTA

CITY           SKY/WX    TMP DP  RH WIND       PRES   REMARKS
ABERDEEN       CLOUDY    35  29  78 N9        29.56S WCI  28
WATERTOWN      CLOUDY    37  30  75 S17       29.53S
BROOKINGS      CLOUDY    38  29  70 S18G29    29.57F
SISSETON         N/A     34  28  79 SE10      29.58  WCI  26
$$

SDZ017-020-022-023-036>040-048>070-171000-
SOUTHEAST SOUTH DAKOTA

CITY           SKY/WX    TMP DP  RH WIND       PRES   REMARKS
SIOUX FALLS    CLOUDY    40  31  70 S16       29.62F
HURON          CLOUDY    42  32  67 S13       29.51S
CHAMBERLAIN    CLOUDY    51  36  57 W13       29.51R
MITCHELL       PTCLDY    43  33  68 S15       29.53F
YANKTON        CLEAR     39  33  79 SE7       29.62F
$$

ABBREVIATIONS USED IN REMARKS
   TC - TEMPERATURE IN CELSIUS
  WCI - WIND CHILL INDEX
   HX - HEAT INDEX
  VSB - VISIBILITY





USA.gov is the U.S. government's official web portal to all federal, state and local government web resources and services.